TimeMST,TemperatureF,Dew PointF,Humidity,Sea Level PressureIn,VisibilityMPH,Wind Direction,Wind SpeedMPH,Gust SpeedMPH,PrecipitationIn,Events,Conditions,WindDirDegrees,DateUTC
12:00 AM,23.0,21.2,93,29.63,1.8,Calm,Calm,-,N/A,,Overcast,0,2012-12-16 07:00:00
12:10 AM,24.8,23.0,93,29.63,1.0,Calm,Calm,-,N/A,,Mist,0,2012-12-16 07:10:00
12:21 AM,24.8,24.8,100,29.62,0.5,Calm,Calm,-,N/A,Fog,Light Freezing Fog,0,2012-12-16 07:21:00
12:53 AM,24.1,23.0,96,29.72,0.2,SW,3.5,-,N/A,Fog,Light Freezing Fog,230,2012-12-16 07:53:00
1:32 AM,24.8,24.8,100,29.62,1.5,South,4.6,-,N/A,,Overcast,190,2012-12-16 08:32:00
1:35 AM,24.8,23.0,93,29.62,3.0,South,3.5,-,N/A,,Overcast,190,2012-12-16 08:35:00
1:53 AM,23.0,21.9,96,29.72,6.0,South,3.5,-,N/A,,Overcast,170,2012-12-16 08:53:00
2:33 AM,23.0,21.2,93,29.62,1.8,West,3.5,-,N/A,,Overcast,270,2012-12-16 09:33:00
2:39 AM,21.2,21.2,100,29.63,0.8,WSW,4.6,-,N/A,,Overcast,250,2012-12-16 09:39:00
2:53 AM,21.9,21.9,100,29.73,0.2,WSW,4.6,-,N/A,Fog,Light Freezing Fog,240,2012-12-16 09:53:00
3:53 AM,24.1,23.0,96,29.71,0.2,Calm,Calm,-,N/A,Fog,Light Freezing Fog,0,2012-12-16 10:53:00
4:53 AM,25.0,23.0,92,29.70,0.2,SE,8.1,-,N/A,Fog,Light Freezing Fog,130,2012-12-16 11:53:00
5:53 AM,23.0,21.0,92,29.72,0.2,SE,8.1,-,N/A,Fog,Light Freezing Fog,130,2012-12-16 12:53:00
6:53 AM,21.0,19.9,96,29.75,0.2,Calm,Calm,-,N/A,Fog,Light Freezing Fog,0,2012-12-16 13:53:00
7:53 AM,21.9,21.0,96,29.76,0.5,South,3.5,-,N/A,Fog,Light Freezing Fog,180,2012-12-16 14:53:00
8:35 AM,19.4,17.6,93,29.66,1.5,East,6.9,-,N/A,,Overcast,100,2012-12-16 15:35:00
8:37 AM,19.4,17.6,93,29.66,3.0,East,8.1,-,N/A,,Overcast,100,2012-12-16 15:37:00
8:53 AM,19.0,17.1,92,29.78,5.0,ESE,9.2,-,N/A,,Overcast,110,2012-12-16 15:53:00
9:37 AM,19.4,19.4,100,29.68,1.8,East,10.4,-,N/A,,Overcast,100,2012-12-16 16:37:00
9:43 AM,21.2,19.4,93,29.68,0.8,East,10.4,-,N/A,,Overcast,100,2012-12-16 16:43:00
9:53 AM,21.9,19.9,92,29.81,0.5,East,9.2,-,N/A,Fog,Light Freezing Fog,100,2012-12-16 16:53:00
10:53 AM,25.0,23.0,92,29.81,4.0,East,8.1,-,N/A,,Overcast,90,2012-12-16 17:53:00
11:53 AM,27.0,26.1,96,29.80,7.0,East,9.2,-,N/A,,Overcast,90,2012-12-16 18:53:00
12:29 PM,28.4,26.6,93,29.67,8.0,East,10.4,-,N/A,,Mostly Cloudy,100,2012-12-16 19:29:00
12:53 PM,30.9,27.0,85,29.77,9.0,ESE,5.8,-,N/A,,Mostly Cloudy,120,2012-12-16 19:53:00
1:53 PM,30.0,25.0,82,29.77,10.0,South,5.8,-,N/A,,Clear,170,2012-12-16 20:53:00
2:53 PM,32.0,24.1,73,29.77,10.0,SSE,4.6,-,N/A,,Scattered Clouds,150,2012-12-16 21:53:00
3:53 PM,30.9,24.1,76,29.78,10.0,East,4.6,-,N/A,,Scattered Clouds,80,2012-12-16 22:53:00
4:53 PM,28.0,23.0,81,29.80,10.0,Calm,Calm,-,N/A,,Overcast,0,2012-12-16 23:53:00
5:53 PM,26.1,23.0,88,29.82,10.0,Calm,Calm,-,N/A,,Mostly Cloudy,0,2012-12-17 00:53:00
6:53 PM,25.0,21.9,88,29.84,8.0,East,3.5,-,N/A,,Scattered Clouds,100,2012-12-17 01:53:00
7:53 PM,24.1,21.0,88,29.85,10.0,ESE,3.5,-,N/A,,Partly Cloudy,120,2012-12-17 02:53:00
8:53 PM,21.0,18.0,88,29.87,10.0,South,3.5,-,N/A,,Clear,170,2012-12-17 03:53:00
9:53 PM,21.9,19.0,89,29.85,10.0,ESE,3.5,-,N/A,,Clear,120,2012-12-17 04:53:00
10:53 PM,19.0,16.0,88,29.83,10.0,ESE,3.5,-,N/A,,Clear,110,2012-12-17 05:53:00
11:53 PM,18.0,15.1,88,29.79,8.0,ESE,3.5,-,N/A,,Clear,120,2012-12-17 06:53:00